This is the latest recevied weather packets stored in our database for station/object IU0KRR-10. If no packets are shown the sender has not sent any weather packets the latest 10 day(s).
| Time | Temp. | Humidity | Pressure | Rain* | Wind** | Luminosity | Snow |
|---|---|---|---|---|---|---|---|
| 1777967040 | 18.89° C | 42% | 871.3 hPa | - | - | - | - |
| 1777966140 | 18.89° C | 42% | 871.4 hPa | - | - | - | - |
| 1777965240 | 18.89° C | 41% | 871.3 hPa | - | - | - | - |
| 1777964340 | 18.89° C | 41% | 871.2 hPa | - | - | - | - |
| 1777963440 | 18.89° C | 42% | 871.4 hPa | - | - | - | - |
| 1777962539 | 18.33° C | 42% | 871.5 hPa | - | - | - | - |
| 1777961639 | 18.89° C | 41% | 871.4 hPa | - | - | - | - |
| 1777960738 | 18.89° C | 40% | 871.3 hPa | - | - | - | - |
| 1777959838 | 18.33° C | 40% | 871.2 hPa | - | - | - | - |
| 1777958938 | 18.33° C | 40% | 871.1 hPa | - | - | - | - |
| 1777958038 | 18.89° C | 39% | 871.2 hPa | - | - | - | - |
| 1777957138 | 18.89° C | 40% | 871.1 hPa | - | - | - | - |
| 1777956238 | 19.44° C | 39% | 871.1 hPa | - | - | - | - |
| 1777955600 | 19.44° C | 37% | 871.3 hPa | - | - | - | - |
| 1777955338 | 19.44° C | 37% | 871.3 hPa | - | - | - | - |
| 1777954437 | 19.44° C | 36% | 871.3 hPa | - | - | - | - |
| 1777953537 | 20° C | 35% | 871.6 hPa | - | - | - | - |
| 1777952637 | 20° C | 33% | 871.5 hPa | - | - | - | - |
| 1777951737 | 20.56° C | 33% | 871.6 hPa | - | - | - | - |
| 1777950837 | 21.11° C | 32% | 871.7 hPa | - | - | - | - |
| 1777949937 | 21.11° C | 32% | 871.8 hPa | - | - | - | - |
| 1777949037 | 21.11° C | 33% | 871.8 hPa | - | - | - | - |
| 1777948137 | 21.11° C | 33% | 871.9 hPa | - | - | - | - |
| 1777947237 | 20.56° C | 35% | 872.1 hPa | - | - | - | - |
| 1777946337 | 20.56° C | 35% | 872.1 hPa | - | - | - | - |
* Rain since midnight (hover to see other rain measurements)
** Current wind speed in m/s (hover to see current wind gust speed)